FW5468 Weather Reports


time (UTC)temp
F
wind
direction
speed
knots
gust
knots
rain 1hr
in
rain 24hr
in
rain mn
in
humidity
%
barometer
mb
20260906123007 78 139 0.0 1.7 0.00 0.04 0.00 87 1011.6
20260906121555 78 170 0.0 2.6 0.00 0.04 0.00 87 1011.6
20260906120056 78 135 0.9 2.6 0.00 0.04 0.00 88 1011.5
20260906114513 77 156 0.9 2.6 0.00 0.04 0.00 88 1011.4
20260906113103 77 151 0.0 0.0 0.00 0.04 0.00 88 1011.2
20260906111547 77 143 0.0 2.6 0.00 0.04 0.00 88 1011.0
20260906110018 77 172 0.0 1.7 0.00 0.04 0.00 89 1011.1
20260906104627 77 295 0.0 0.9 0.00 0.04 0.00 89 1011.0
20260906103037 78 177 0.0 0.0 0.00 0.04 0.00 90 1011.0
20260906101533 78 181 0.0 0.9 0.00 0.04 0.00 90 1011.0
20260906100110 78 139 1.7 6.1 0.00 0.04 0.00 90 1011.0
20260906094543 78 300 0.0 3.5 0.00 0.04 0.00 90 1010.4
20260906093103 78 284 0.0 0.0 0.00 0.04 0.00 89 1010.2
20260906091531 79 283 0.0 0.0 0.00 0.04 0.00 89 1010.2
20260906090110 79 221 0.0 0.0 0.00 0.04 0.00 89 1010.2
20260906084556 79 221 0.0 0.0 0.00 0.04 0.00 89 1010.2
20260906083034 79 359 0.0 0.0 0.00 0.04 0.00 89 1010.0
20260906081626 79 359 0.0 0.0 0.00 0.04 0.00 89 1010.0
20260906080007 79 359 0.0 0.0 0.00 0.04 0.00 89 1009.9
20260906074602 79 359 0.0 0.0 0.00 0.04 0.00 89 1009.9
20260906073006 79 359 0.0 0.0 0.00 0.04 0.00 89 1009.9
20260906071554 80 359 0.0 0.0 0.00 0.04 0.00 89 1009.9
20260906070018 80 359 0.0 0.9 0.00 0.04 0.00 90 1009.8
20260906064511 80 359 0.0 0.9 0.00 0.04 0.00 89 1010.0
20260906063058 80 359 0.0 1.7 0.00 0.04 0.04 89 1010.1
20260906061508 80 359 0.0 0.9 0.00 0.04 0.04 87 1010.1
20260906060105 81 359 0.0 0.0 0.00 0.04 0.04 87 1010.2
20260906054537 81 359 0.0 0.0 0.00 0.04 0.04 87 1010.3
20260906053006 81 359 0.0 0.9 0.00 0.04 0.04 87 1010.3
20260906051554 82 359 0.0 0.9 0.00 0.04 0.04 85 1010.4
20260906050044 82 359 0.0 0.9 0.00 0.04 0.04 82 1010.3
20260906044632 82 359 0.0 0.0 0.00 0.04 0.04 82 1010.4
20260906043048 83 359 0.0 0.0 0.00 0.04 0.04 82 1010.4
20260906041546 83 359 0.0 0.0 0.00 0.04 0.04 82 1010.4
20260906040004 84 359 0.0 0.0 0.00 0.04 0.04 80 1010.4
20260906034553 84 359 0.0 0.0 0.00 0.04 0.04 79 1010.3
20260906033014 85 359 0.0 0.0 0.00 0.04 0.04 78 1010.2
20260906031557 85 359 0.0 0.0 0.00 0.04 0.04 77 1010.2
20260906030001 85 359 0.0 0.9 0.00 0.04 0.04 76 1010.1
20260906024551 86 359 0.0 0.9 0.00 0.04 0.04 75 1010.1
20260906023015 86 359 0.0 0.0 0.00 0.04 0.04 75 1010.0
20260906021510 87 359 0.0 0.9 0.00 0.04 0.04 75 1010.1
20260906020042 87 34 0.0 0.0 0.00 0.04 0.04 74 1009.9
20260906014517 88 24 0.0 0.9 0.00 0.04 0.04 71 1009.7
20260906013056 89 45 0.0 0.0 0.00 0.04 0.04 70 1009.5
20260906010002 90 142 0.0 0.0 0.00 0.04 0.04 67 1009.2
20260906004548 91 141 0.0 0.9 0.00 0.04 0.04 65 1009.1
20260906003012 93 99 0.0 0.0 0.00 0.04 0.04 63 1009.1
20260906001605 94 179 0.0 0.9 0.00 0.04 0.04 60 1009.2
20260906000042 95 58 0.0 0.9 0.00 0.04 0.04 57 1009.2
20260905234626 95 148 0.0 0.9 0.00 0.04 0.04 56 1009.2
20260905233111 96 148 0.0 1.7 0.00 0.04 0.04 53 1009.1
20260905231550 97 209 0.0 1.7 0.00 0.04 0.04 52 1009.1
20260905230006 99 155 0.9 3.5 0.00 0.04 0.04 50 1009.2
20260905224617 101 115 0.0 2.6 0.00 0.04 0.04 48 1009.2
20260905223013 102 180 1.7 2.6 0.00 0.04 0.04 46 1009.2
20260905221557 102 45 0.0 2.6 0.00 0.04 0.04 49 1009.1
20260905220002 101 96 0.9 5.2 0.00 0.04 0.04 47 1009.4
20260905214513 100 127 1.7 4.3 0.00 0.04 0.04 53 1009.4
20260905213104 100 143 0.9 3.5 0.00 0.04 0.04 47 1009.6
20260905211539 100 121 0.0 1.7 0.00 0.04 0.04 46 1009.6
20260905210001 100 336 0.0 2.6 0.00 0.04 0.04 50 1009.7
20260905204534 100 139 0.9 2.6 0.00 0.04 0.04 52 1009.9
20260905203108 99 142 0.0 3.5 0.00 0.04 0.04 49 1010.1
20260905201544 99 132 0.9 3.5 0.00 0.04 0.04 53 1010.2
20260905200005 97 208 1.7 3.5 0.01 0.04 0.04 56 1010.4
20260905194600 94 56 0.0 1.7 0.04 0.04 0.04 63 1010.7
20260905193009 91 28 0.0 1.7 0.04 0.04 0.04 76 1011.0
20260905191557 90 359 0.9 2.6 0.04 0.04 0.04 81 1011.3
20260905190041 95 280 0.9 4.3 0.04 0.04 0.04 65 1011.8
20260905184620 96 128 2.6 5.2 0.00 0.00 0.00 56 1011.5
20260905183043 96 110 0.9 2.6 0.00 0.00 0.00 56 1011.6
20260905181500 97 71 2.6 8.7 0.00 0.00 0.00 52 1011.8
20260905180042 98 309 0.0 7.8 0.00 0.00 0.00 54 1011.5
20260905174608 97 268 0.0 3.5 0.00 0.00 0.00 52 1011.8
20260905173057 98 26 0.0 3.5 0.00 0.00 0.00 52 1011.9
20260905171529 99 29 1.7 5.2 0.00 0.00 0.00 53 1012.2
20260905170126 97 81 1.7 4.3 0.00 0.00 0.00 55 1012.4
20260905164507 95 83 0.0 2.6 0.00 0.00 0.00 57 1012.6
20260905163101 94 11 0.9 3.5 0.00 0.00 0.00 57 1012.9
20260905161549 94 62 0.9 2.6 0.00 0.00 0.00 58 1012.8
20260905160036 94 29 0.0 2.6 0.00 0.00 0.00 60 1013.0
20260905154603 93 47 0.0 2.6 0.00 0.00 0.00 63 1013.1
20260905153001 91 297 0.0 2.6 0.00 0.00 0.00 64 1013.2
20260905151556 90 302 0.0 1.7 0.00 0.00 0.00 68 1013.2
20260905144628 88 199 0.9 1.7 0.00 0.00 0.00 70 1013.2
20260905143130 87 220 0.0 2.6 0.00 0.00 0.00 74 1013.1
20260905141554 86 268 0.0 2.6 0.00 0.00 0.00 75 1013.0
20260905140002 84 247 0.0 1.7 0.00 0.00 0.00 79 1013.1
20260905134552 83 226 0.0 2.6 0.00 0.00 0.00 81 1013.0
20260905133005 81 154 0.0 1.7 0.00 0.00 0.00 85 1012.9
20260905131558 79 162 0.9 2.6 0.00 0.00 0.00 89 1013.0
20260905124533 77 150 0.0 0.0 0.00 0.00 0.00 92 1012.8